Location: Hillsman's Observatory
(38.8566°N, 93.9398°W)
Time: 05:27:34
(UTC-05:00)

Envisat - Visible Passes

Search period start: 23 June 2018 00:00
Search period end: 03 July 2018 00:00
Orbit: 764 x 766 km, 98.2° (Epoch: 22 June)

Date Brightness Start Highest point End Pass type
(mag) Time Alt. Az. Time Alt. Az. Time Alt. Az.
23 Jun 5.6 21:50:51 10° SW 21:53:49 16° W 21:56:50 10° NW visible
24 Jun 4.6 21:12:12 10° SSW 21:16:49 35° W 21:21:28 10° NNW visible
26 Jun 5.5 21:38:54 10° SW 21:42:34 20° W 21:46:15 10° NW visible
28 Jun 5.9 22:07:21 10° WSW 22:08:25 11° W 22:09:29 10° WNW visible
29 Jun 5.1 21:27:09 10° SSW 21:31:19 25° W 21:35:30 10° NW visible
01 Jul 5.7 21:54:30 10° WSW 21:57:07 14° W 21:59:45 10° WNW visible
02 Jul 4.8 21:15:35 10° SSW 21:20:05 32° W 21:24:38 10° NNW visible
